STARLINK-31794, 59803

Orbit data source: Space-Track

STARLINK-31794, 59803 is a payload satellite owned by SpaceX/Seattle (US) in LEO that was launched on Sat, 18 May 2024 UTC via an FALCON 9 launch vehicle from the Air Force Eastern Test Range (AFETR). Payload-class satellites include a variety of spacecraft equipped with specific instruments for various scientific and technological missions. These include communications satellites like Starlink; space stations such as the ISS; scientific satellites like the Hubble; Earth observation satellites from companies like Planet Labs, Umbra, and HawkEye 360; GPS; miniature CubeSats for education and research; and military/defense satellites.

Loading next visibility...
Identifier
59803, 2024-093X
Orbit
LEO
Country
Flag of USUS
Related business
Manufacturer
SpaceX/Seattle
Mission
Operational spacecraft
Bus & Motor
STARLINK V2M, Unknown motor
Mass
730 kg wet, ~700 kg dry
Launch date (UTC)
2024-05-18 (1 year ago)
Launch vehicle
FALCON 9
Launch site
Air Force Eastern Test Range (AFETR)
Object type
Payload
Rocket body
Debris
Shape & HBR
Unknown shape, 17.7 m
Radar Cross Section
Large (>1 m²)

Expand to show TLE details & history
Last TLE update: 7 hours ago

TLE from 7 hours ago
0 STARLINK-31794
1 59803U 24093X   25292.26939266  .00002452  00000-0  98574-4 0  9996
2 59803  43.0011 287.8533 0001319 269.8801  90.1899 15.27588697 81137
Epoch: 2025-10-19T06:27Z
TLE epoch observation values (Epoch: 2025-10-19T06:27:55.525Z)
Latitude
-0.00007°
Longitude
162.88339°
Altitude
482.802 km
Speed
7.626 km/s
True Right ascension
19h 11m 24s
True Declination
0° 00' 00"
Sunlit
Object was in daylight at epoch
Visualization orbit readout
Latitude
Unknown
Longitude
Unknown
Altitude
Unknown
Speed
Unknown
Apparent Right ascension
Unknown
Apparent Declination
Unknown
Sunlit
N/A
Visualization observer readout
Local Sidereal Time
08:23:09
Azimuth
Unknown
Elevation
Unknown
Doppler factor
Unknown
Orbital elements
Apogee altitude
485.873 km
Perigee altitude
484.063 km
Semi-major axis
6,863.105 km
Eccentricity
0.00013
Inclination
43.0011°
RAAN
287.8533°
Arg. of periapsis
269.8801°
True anomaly
90.20501°
Mean anomaly
90.1899°
Eccentric anomaly
90.19746°
Mean motion
3.81735 °/min
Orbital period
94.31 mins
BSTAR
0.000098574
Loading maneuver chart data...
Computing Atmospheric mass density...
Loading historical data...
Loading historical data...
Loading historical data...
Loading historical data...
Loading historical data...
Loading historical data...
Loading historical data...

Documentation

Showing up to 5 results
|